[[{"header":{"parameterUnit":"m.s-1","parameterCategory":1,"la1":30.2991,"la2":30.254,"lo1":-89.0895,"lo2":-89.0444,"dy":0.0017,"dx":0.0017,"nx":28,"ny":28,"refTime":"2024-09-04T09:00:00:Z","depth":0,"parameterNumber":2,"parameterNumberName":"U-component_of_WINDS"},"data":[0,0,0,0,0,0,0,0,0,0,0,0,0,0,0,0,0,0,0,0,0,0,0,0,0,0,0,0,0,0,0,0,0,0,0,0,0,0,0,0,0,0,0,0,0,0,0,0,0,0,0,0,0,0,0,0,0,0,-3.7339,-3.7341,0,-3.7502,-3.7504,-3.7505,-3.7488,-3.7485,-3.7483,-3.748,-3.7657,-3.7664,-3.7671,0,0,0,0,0,0,0,0,0,0,0,0,0,-3.7024,-3.703,-3.7339,-3.7341,-3.7343,-3.7501,-3.7504,-3.7506,-3.7488,-3.7485,-3.7482,-3.7479,-3.7655,-3.7663,-3.7672,0,0,0,0,0,0,0,0,0,0,0,0,0,-3.7172,-3.7032,-3.7339,-3.7353,-3.7356,-3.7501,-3.7504,-3.7507,-3.7489,-3.7485,-3.7481,-3.7478,-3.7652,-3.7663,-3.7673,-3.7817,0,0,-3.7706,-3.7711,0,0,0,0,0,0,0,0,-3.7163,-3.7183,-3.7349,-3.7352,-3.7356,-3.747,-3.7458,-3.7611,-3.749,-3.7439,-3.748,-3.7476,-3.7599,-3.7614,-3.7653,-3.7826,-3.7833,-3.7707,-3.7713,-3.7718,-3.7721,0,0,0,0,0,0,0,-3.7153,-3.7176,-3.7404,-3.7351,-3.7356,-3.7355,-3.7372,-3.7487,-3.7539,-3.7443,-3.7442,-3.7461,-3.76,-3.7643,-3.7657,-3.7836,-3.7707,-3.7716,-3.7723,-3.7727,-3.8139,-3.8143,0,0,0,0,0,0,-3.7138,-3.7168,-3.7399,-3.7409,-3.7248,-3.7364,-3.7383,-3.7438,-3.7538,-3.7549,-3.7464,-3.746,-3.7627,-3.7645,-3.7663,-3.7841,-3.7718,-3.7728,-3.7734,-3.8134,-3.814,-3.8144,0,0,0,0,0,0,-3.7131,-3.7159,-3.7392,-3.7288,-3.7318,-3.7374,-3.7436,-3.7443,-3.7485,-3.7554,-3.7564,-3.7497,-3.7624,-3.7648,-3.7779,-3.7846,-3.7733,-3.7742,-3.8129,-3.8136,-3.8142,-3.8195,0,0,0,0,0,0,-3.7122,-3.7156,-3.7209,-3.7289,-3.7323,-3.7501,-3.744,-3.7449,-3.7503,-3.7498,-3.7588,-3.7599,-3.7623,-3.7763,-3.779,-3.7859,-3.7751,-3.8123,-3.8132,-3.814,-3.8187,-3.8202,-3.8215,0,0,0,0,0,-3.7111,-3.7219,-3.7211,-3.7239,-3.7389,-3.7505,-3.7525,-3.7548,-3.7508,-3.7563,-3.7608,-3.7596,-3.7835,-3.7777,-3.7807,-3.788,-3.8119,-3.8129,-3.8139,-3.8181,-3.8199,-3.8215,0,0,0,0,0,0,-3.7148,-3.7229,-3.7222,-3.7358,-3.7425,-3.7502,-3.7572,-3.7566,-3.7648,-3.7641,-3.7669,-3.7689,-3.7822,-3.7864,-3.7798,-3.8027,-3.7972,-3.7989,-3.7994,-3.8012,-3.8026,-3.8013,-3.776,0,0,0,0,0,-3.7171,-3.7255,-3.7323,-3.7437,-3.747,-3.7515,-3.7567,-3.7579,-3.765,-3.7679,-3.7732,-3.7805,-3.7897,-3.7957,-3.8045,-3.8194,-3.8215,-3.8259,-3.8273,-3.8285,-3.8299,-3.8384,-3.8405,-3.8178,-3.8178,-3.8178,0,0,-3.7221,-3.7276,-3.7328,-3.7446,-3.7498,-3.7588,-3.7539,-3.7636,-3.7704,-3.7695,-3.782,-3.7863,-3.7947,-3.8088,-3.8153,-3.8127,-3.8367,-3.8298,-3.8306,-3.8314,-3.8397,-3.8418,-3.8437,-3.8185,-3.8183,-3.8182,0,0,-3.7358,-3.7407,-3.7508,-3.7561,-3.7641,-3.7671,-3.7695,-3.7774,-3.7801,-3.7927,-3.7923,-3.8007,-3.8163,-3.8223,-3.8274,-3.8437,-3.8431,-3.8466,-3.854,-3.8622,-3.864,-3.8656,-3.8716,-3.8737,-3.848,-3.848,-3.848,0,-3.7411,-3.7542,-3.7561,-3.7659,-3.7712,-3.7705,-3.781,-3.7863,-3.7969,-3.8008,-3.7977,-3.8174,-3.823,-3.8386,-3.8426,-3.8467,-3.8499,-3.8455,-3.8635,-3.8652,-3.8667,-3.8725,-3.8747,-3.8483,-3.8483,-3.8483,-3.8482,0,-3.7605,-3.7696,-3.7769,-3.7868,-3.793,-3.8031,-3.8069,-3.8131,-3.8138,-3.8172,-3.8304,-3.837,-3.8472,-3.8511,-3.852,-3.867,-3.8652,-3.8628,-3.8574,-3.8692,-3.8747,-3.8769,-3.8489,-3.8487,-3.8486,-3.8485,0,0,-3.7767,-3.7876,-3.7903,-3.7949,-3.8038,-3.8111,-3.8214,-3.8311,-3.8364,-3.8439,-3.8528,-3.8661,-3.864,-3.8699,-3.8715,-3.8787,-3.8915,-3.8755,-3.8758,-3.8784,-3.9088,-3.9105,-3.913,-3.8911,-3.8915,-3.8919,-3.9081,0,-3.7914,-3.8091,-3.8112,-3.8272,-3.8359,-3.8355,-3.8445,-3.8512,-3.8547,-3.863,-3.8671,-3.8766,-3.873,-3.8765,-3.8837,-3.8884,-3.8977,-3.8873,-3.8998,-3.9002,-3.8977,-3.9159,-3.9177,-3.9327,-3.9103,-3.9106,-3.9109,0,-3.8108,-3.8185,-3.8352,-3.843,-3.8468,-3.8548,-3.864,-3.8717,-3.8795,-3.8816,-3.8882,-3.889,-3.9001,-3.8942,-3.9097,-3.9026,-3.9079,-3.9111,-3.9117,-3.913,-3.9063,-3.9179,-3.9375,-3.9398,-3.9143,-3.914,-3.9138,0,-3.8211,-3.8357,-3.8477,-3.8516,-3.861,-3.8667,-3.871,-3.8783,-3.8841,-3.8924,-3.8962,-3.9058,-3.911,-3.9186,-3.9221,-3.9175,-3.9376,-3.9319,-3.94,-3.9399,-3.9442,-3.9439,-3.9652,-3.9475,-3.9475,-3.9474,-3.9474,0,-3.8373,-3.8476,-3.8524,-3.8598,-3.8715,-3.8741,-3.8857,-3.8898,-3.8964,-3.9049,-3.9053,-3.9133,-3.9174,-3.9262,-3.9291,-3.9417,-3.9441,-3.9464,-3.9471,-3.9464,-3.9461,-3.95,-3.9491,-3.948,-3.9479,-3.9478,-3.9477,0,-3.8508,-3.8544,-3.8674,-3.8753,-3.8776,-3.8858,-3.8928,-3.9002,-3.9037,-3.9145,-3.9172,-3.9229,-3.9333,-3.9375,-3.9504,-3.9524,-3.9669,-3.9667,-3.9642,-3.9644,-3.9723,-3.9715,-3.9968,-4.0004,-3.9802,-3.9804,-3.9806,0,-3.8608,-3.8687,-3.8774,-3.8829,-3.8873,-3.8963,-3.9021,-3.9052,-3.9114,-3.9209,-3.9273,-3.9376,-3.946,-3.9627,-3.9683,-3.9782,-3.9784,-3.9866,-3.9799,-3.9791,-3.9787,-3.9782,-3.9792,-3.9878,-3.988,-3.9882,-3.9883,0,-3.8783,-3.8798,-3.888,-3.8971,-3.904,-3.9114,-3.9185,-3.9232,-3.9274,-3.9345,-3.9449,-3.9514,-3.9645,-3.9749,-3.9851,-3.99,-3.9901,-3.9904,-3.9928,-3.9922,-3.9905,-3.9917,-3.9676,-3.9898,-3.9897,-3.9895,-3.9895,-3.9894,-3.8905,-3.8976,-3.9048,-3.9142,-3.9198,-3.9266,-3.9339,-3.9384,-3.947,-3.9577,-3.9591,-3.9704,-3.9784,-3.9921,-3.9975,-4.0067,-4.0046,-4.0081,-4.009,-4.0098,-4.0104,-3.9889,-4.0086,-4.0085,-4.0085,-4.0085,-4.0085,0,-3.9082,-3.9128,-3.9214,-3.9313,-3.9387,-3.9378,-3.9458,-3.9522,-3.962,-3.9693,-3.9775,-3.9898,-3.9999,-4.0064,-4.0167,-4.0229,-4.0232,-4.0255,-4.0252,-4.0264,-4.0116,-4.0085,-4.0251,-4.0251,-4.0251,-4.0251,-4.0251,-4.0251,-3.9182,-3.9302,-3.9326,-3.9475,-3.9523,-3.9631,-3.9678,-3.9742,-3.98,-3.9935,-4.0018,-4.0059,-4.013,-4.0239,-4.0333,-4.035,-4.0389,-4.0414,-4.043,-4.0291,-4.0273,-4.0257,-4.0228,-4.0422,-4.0422,-4.057,-4.0571,-4.0572]},{"header":{"parameterUnit":"m.s-1","parameterCategory":1,"la1":30.2991,"la2":30.254,"lo1":-89.0895,"lo2":-89.0444,"dy":0.0017,"dx":0.0017,"nx":28,"ny":28,"refTime":"2024-09-04T09:00:00:Z","depth":0,"parameterNumber":3,"parameterNumberName":"V-component_of_WINDS"},"data":[0,0,0,0,0,0,0,0,0,0,0,0,0,0,0,0,0,0,0,0,0,0,0,0,0,0,0,0,0,0,0,0,0,0,0,0,0,0,0,0,0,0,0,0,0,0,0,0,0,0,0,0,0,0,0,0,0,0,-0.2742,-0.2743,0,-0.2854,-0.2855,-0.2857,-0.2913,-0.2913,-0.2913,-0.2913,-0.3034,-0.3037,-0.304,0,0,0,0,0,0,0,0,0,0,0,0,0,-0.2582,-0.2584,-0.2742,-0.2744,-0.2745,-0.2854,-0.2855,-0.2857,-0.2913,-0.2913,-0.2913,-0.2913,-0.3033,-0.3037,-0.3041,0,0,0,0,0,0,0,0,0,0,0,0,0,-0.2668,-0.2585,-0.2742,-0.2786,-0.2791,-0.2853,-0.2855,-0.2857,-0.2913,-0.2913,-0.2913,-0.2913,-0.3032,-0.3037,-0.3041,-0.307,0,0,-0.3056,-0.3058,0,0,0,0,0,0,0,0,-0.2663,-0.2674,-0.2778,-0.2783,-0.2789,-0.287,-0.2843,-0.2929,-0.2913,-0.2867,-0.2913,-0.2913,-0.298,-0.2989,-0.301,-0.3076,-0.3081,-0.3056,-0.3059,-0.3061,-0.3063,0,0,0,0,0,0,0,-0.2657,-0.267,-0.2787,-0.278,-0.2786,-0.2802,-0.2814,-0.286,-0.2922,-0.2871,-0.2875,-0.2888,-0.2983,-0.3005,-0.3013,-0.3083,-0.3056,-0.3061,-0.3064,-0.3065,-0.3178,-0.3178,0,0,0,0,0,0,-0.2643,-0.2664,-0.2783,-0.279,-0.2725,-0.2804,-0.2818,-0.2844,-0.2922,-0.2934,-0.2887,-0.289,-0.2997,-0.3008,-0.3018,-0.3057,-0.3061,-0.3066,-0.3069,-0.3178,-0.3178,-0.3178,0,0,0,0,0,0,-0.264,-0.2653,-0.2779,-0.2728,-0.2745,-0.2807,-0.2835,-0.2846,-0.2868,-0.2934,-0.2946,-0.2899,-0.2997,-0.3011,-0.3056,-0.3062,-0.3068,-0.3072,-0.3178,-0.3178,-0.3178,-0.3135,0,0,0,0,0,0,-0.2635,-0.2652,-0.2663,-0.2728,-0.2748,-0.2814,-0.2836,-0.2848,-0.2876,-0.288,-0.2948,-0.2959,-0.2999,-0.3049,-0.3061,-0.3068,-0.3076,-0.3177,-0.3178,-0.3178,-0.3136,-0.3133,-0.3131,0,0,0,0,0,-0.2629,-0.2648,-0.2663,-0.2677,-0.2762,-0.2814,-0.2825,-0.2869,-0.2876,-0.2888,-0.293,-0.2957,-0.3058,-0.3053,-0.3067,-0.3076,-0.3177,-0.3178,-0.3178,-0.3137,-0.3134,-0.3131,0,0,0,0,0,0,-0.2584,-0.2657,-0.2675,-0.2715,-0.2757,-0.2823,-0.284,-0.2864,-0.2907,-0.291,-0.2963,-0.2978,-0.3018,-0.3052,-0.3044,-0.3108,-0.3121,-0.3124,-0.3085,-0.3082,-0.308,-0.3072,-0.308,0,0,0,0,0,-0.2578,-0.2612,-0.2675,-0.2704,-0.2724,-0.2778,-0.2802,-0.2831,-0.2879,-0.2898,-0.2943,-0.2989,-0.3032,-0.3059,-0.3101,-0.314,-0.3156,-0.3153,-0.3151,-0.3149,-0.3151,-0.3174,-0.3174,-0.3179,-0.3179,-0.3179,0,0,-0.2568,-0.2612,-0.2631,-0.2696,-0.2733,-0.2768,-0.2793,-0.283,-0.2857,-0.2904,-0.2949,-0.2983,-0.3039,-0.308,-0.3101,-0.311,-0.3153,-0.3149,-0.3147,-0.3151,-0.3174,-0.3174,-0.3173,-0.3179,-0.3179,-0.3179,0,0,-0.2567,-0.2603,-0.2631,-0.2666,-0.272,-0.2755,-0.2761,-0.2823,-0.2847,-0.2892,-0.2928,-0.2961,-0.3033,-0.3071,-0.3099,-0.3109,-0.3136,-0.3122,-0.311,-0.3132,-0.3131,-0.3131,-0.3135,-0.3136,-0.3124,-0.3124,-0.3124,0,-0.2548,-0.26,-0.2643,-0.2677,-0.2705,-0.2746,-0.2775,-0.2808,-0.2873,-0.2892,-0.29,-0.299,-0.303,-0.3081,-0.3083,-0.3104,-0.3114,-0.3115,-0.3127,-0.3128,-0.3129,-0.3133,-0.3134,-0.3122,-0.3122,-0.3122,-0.3122,0,-0.2574,-0.261,-0.2627,-0.2686,-0.2716,-0.2747,-0.2795,-0.2821,-0.2846,-0.2881,-0.2926,-0.2975,-0.3028,-0.3042,-0.3069,-0.3097,-0.31,-0.3117,-0.3131,-0.3125,-0.313,-0.3132,-0.3119,-0.312,-0.312,-0.3121,0,0,-0.2551,-0.263,-0.2636,-0.2663,-0.2724,-0.2753,-0.2786,-0.2836,-0.2856,-0.29,-0.293,-0.2988,-0.3003,-0.3035,-0.3066,-0.3085,-0.309,-0.31,-0.3102,-0.3097,-0.3124,-0.3111,-0.3113,-0.3107,-0.3107,-0.3108,-0.3119,0,-0.2559,-0.2618,-0.2656,-0.2701,-0.2735,-0.2773,-0.2802,-0.2843,-0.2876,-0.291,-0.2947,-0.2988,-0.3004,-0.3024,-0.3044,-0.3085,-0.3096,-0.3085,-0.3137,-0.3139,-0.3123,-0.3115,-0.3103,-0.3112,-0.3121,-0.3122,-0.3122,0,-0.2577,-0.2616,-0.2663,-0.2719,-0.2734,-0.276,-0.2807,-0.2839,-0.2886,-0.2909,-0.2943,-0.2974,-0.3012,-0.3021,-0.3074,-0.3065,-0.3089,-0.3112,-0.3114,-0.3121,-0.3131,-0.3124,-0.3115,-0.3117,-0.3126,-0.3125,-0.3125,0,-0.2555,-0.262,-0.2656,-0.2678,-0.2744,-0.276,-0.2789,-0.2836,-0.2863,-0.2904,-0.2922,-0.2969,-0.2995,-0.303,-0.3073,-0.3076,-0.3123,-0.3136,-0.3144,-0.3142,-0.3153,-0.3152,-0.3149,-0.3166,-0.3166,-0.3166,-0.3166,0,-0.256,-0.2588,-0.2647,-0.2669,-0.2702,-0.2745,-0.2776,-0.2808,-0.2849,-0.288,-0.2916,-0.2944,-0.2999,-0.3034,-0.3068,-0.3107,-0.3118,-0.3139,-0.3148,-0.3136,-0.3133,-0.3153,-0.3154,-0.3167,-0.3166,-0.3166,-0.3166,0,-0.2542,-0.2583,-0.2625,-0.2682,-0.2697,-0.2719,-0.2769,-0.2793,-0.2826,-0.2864,-0.2876,-0.2929,-0.2972,-0.3017,-0.3077,-0.31,-0.3138,-0.315,-0.3121,-0.3126,-0.3132,-0.3131,-0.3143,-0.3147,-0.3159,-0.3159,-0.3159,0,-0.2544,-0.2566,-0.2624,-0.2646,-0.2673,-0.2708,-0.2734,-0.2777,-0.2804,-0.2858,-0.2875,-0.292,-0.2959,-0.3026,-0.3071,-0.3117,-0.3131,-0.3132,-0.3138,-0.3126,-0.3132,-0.313,-0.3133,-0.313,-0.313,-0.313,-0.3129,0,-0.2542,-0.256,-0.2596,-0.2638,-0.2668,-0.2704,-0.2741,-0.2757,-0.2808,-0.2836,-0.2879,-0.2908,-0.2967,-0.3012,-0.3062,-0.3094,-0.3121,-0.3126,-0.3131,-0.312,-0.3103,-0.3113,-0.3116,-0.3127,-0.3127,-0.3127,-0.3127,-0.3127,-0.2535,-0.2555,-0.2599,-0.2638,-0.2669,-0.2703,-0.2728,-0.2763,-0.2798,-0.2848,-0.2872,-0.2915,-0.2961,-0.3031,-0.3061,-0.3097,-0.3105,-0.3111,-0.3113,-0.3114,-0.3111,-0.3095,-0.3106,-0.3106,-0.3106,-0.3106,-0.3107,0,-0.2536,-0.2565,-0.2599,-0.2649,-0.2679,-0.2698,-0.274,-0.2764,-0.2801,-0.284,-0.2876,-0.2926,-0.2968,-0.3016,-0.3062,-0.3081,-0.3095,-0.3092,-0.3092,-0.3099,-0.3101,-0.3093,-0.308,-0.308,-0.308,-0.308,-0.308,-0.308,-0.254,-0.2575,-0.2598,-0.265,-0.268,-0.272,-0.2743,-0.2774,-0.2806,-0.2858,-0.2893,-0.2922,-0.2965,-0.3014,-0.3055,-0.3068,-0.3084,-0.3078,-0.3094,-0.3096,-0.3099,-0.3101,-0.3093,-0.308,-0.308,-0.3089,-0.3089,-0.3089]}]]